This is the latest recevied weather packets stored in our database for station/object EA3GKP-10. If no packets are shown the sender has not sent any weather packets the latest 10 day(s).
| Time | Temp. | Humidity | Pressure | Rain* | Wind** | Luminosity | Snow |
|---|---|---|---|---|---|---|---|
| 1777665170 | 18.89° C | - | - | 0 mm | 0 m/s | - | - |
| 1777664866 | 18.33° C | - | - | 0 mm | 0 m/s | - | - |
| 1777664563 | 18.33° C | - | - | 0 mm | 0.89 m/s, 183° | - | - |
| 1777664260 | 18.89° C | - | - | 0 mm | 0 m/s | - | - |
| 1777663957 | 19.44° C | - | - | 0 mm | 0 m/s | - | - |
| 1777663654 | 19.44° C | - | - | 0 mm | 0.89 m/s, 122° | - | - |
| 1777663046 | 19.44° C | - | - | 0 mm | 1.34 m/s, 125° | - | - |
| 1777662743 | 18.89° C | - | - | 0 mm | 0.89 m/s, 111° | - | - |
| 1777662439 | 19.44° C | - | - | 0 mm | 0.45 m/s, 83° | - | - |
| 1777662137 | 19.44° C | - | - | 0 mm | 0.89 m/s, 100° | - | - |
| 1777661833 | 20° C | - | - | 0 mm | 0.45 m/s, 139° | - | - |
| 1777661531 | 20.56° C | - | - | 0 mm | 1.34 m/s, 105° | - | - |
| 1777661228 | 20° C | - | - | 0 mm | 0.89 m/s, 108° | - | - |
| 1777660925 | 20.56° C | - | - | 0 mm | 1.79 m/s, 73° | - | - |
| 1777660622 | 20.56° C | - | - | 0 mm | 0 m/s | - | - |
| 1777660319 | 20° C | - | - | 0 mm | 1.34 m/s, 82° | - | - |
| 1777660016 | 20° C | - | - | 0 mm | 0.45 m/s, 72° | - | - |
| 1777659713 | 20.56° C | - | - | 0 mm | 1.79 m/s, 141° | - | - |
| 1777659411 | 21.11° C | - | - | 0 mm | 0.45 m/s, 250° | - | - |
| 1777659108 | 21.11° C | - | - | 0 mm | 1.34 m/s, 211° | - | - |
| 1777658805 | 20.56° C | - | - | 0 mm | 0.45 m/s, 100° | - | - |
| 1777658496 | 21.11° C | - | - | 0 mm | 1.34 m/s, 129° | - | - |
| 1777658193 | 21.11° C | - | - | 0 mm | 0.89 m/s, 105° | - | - |
| 1777657887 | 20.56° C | - | - | 0 mm | 1.79 m/s, 105° | - | - |
| 1777657583 | 20.56° C | - | - | 0 mm | 1.79 m/s, 87° | - | - |
* Rain latest hour (hover to see other rain measurements)
** Current wind speed in m/s (hover to see current wind gust speed)